Flag for Japan Weather past 2 weeks in Nagoya, Japan

Now
66 °F

Clear.


Feels Like: 66 °F
Forecast: 56 / 80 °F
Wind: 5 mph from Southeast

Location: Nagoya Airport

Current Time: May 22, 2015 at 10:38:53 PM

Latest Report: May 22, 2015 at 10:00 PM


Visibility: 10 mi

Pressure: 29.95 "Hg

Humidity: 73%

Dew point: 57 °F

Location of NagoyaLocation

Historic Weather in Nagoya — Graph

°F

Nagoya temperature yesterday

Maximum temperature yesterday: 70 °F (at 12:30 PM)
Minimum temperature yesterday: 55 °F (at 1:30 AM)
Average temperature yesterday: 64 °F

Past Weeks' High & Low Weather Summary

 TemperatureHumidityPressure
High81 °F (May 20, 2:30 PM)100% (May 16, 4:00 AM)30.21 "Hg (May 16, 4:00 AM)
Low54 °F (May 11, 4:00 AM)30% (May 14, 11:30 AM)29.45 "Hg (May 12, 8:30 PM)
Average67 °F68%29.83 "Hg
* Reported May 7 9:00 PM — May 22 9:30 PM, Nagoya, Weather by CustomWeather, © 2015

Note: Actual official high and low records may vary slightly from our data, if they occured in-between our weather recording intervals... More about our weather records

Advertising

Nagoya weather history for previous 24 hours

 ConditionsComfort  
Time TempWeatherWind HumidityBarometerVisibility
9:30 PM
Fri, May 22
66 °FPassing clouds.6 mph73%29.92 "HgN/A
9:00 PM68 °FPassing clouds.7 mph69%29.92 "HgN/A
8:30 PM66 °FPassing clouds.8 mph73%29.92 "HgN/A
8:00 PM68 °FPassing clouds.9 mph64%29.92 "HgN/A
7:30 PM68 °FPassing clouds.9 mph60%29.92 "HgN/A
7:00 PM68 °FPassing clouds.9 mph60%29.92 "HgN/A
6:30 PM70 °FScattered clouds.9 mph57%29.92 "HgN/A
6:00 PM72 °FSunny.9 mph50%29.92 "Hg10 mi
5:30 PM73 °FSunny.9 mph47%29.92 "Hg10 mi
5:00 PM73 °FSunny.9 mph44%29.92 "Hg10 mi
4:30 PM73 °FSunny.12 mph47%29.92 "Hg10 mi
4:00 PM73 °FScattered clouds.12 mph47%29.92 "HgN/A
3:30 PM75 °FPartly sunny.8 mph44%29.92 "HgN/A
3:00 PM73 °FPartly sunny.13 mph53%29.92 "HgN/A
2:30 PM72 °FPartly sunny.13 mph53%29.92 "HgN/A
2:00 PM70 °FPartly sunny.6 mph57%29.92 "HgN/A
1:30 PM70 °FBroken clouds.5 mph53%29.95 "HgN/A
1:00 PM72 °FPartly sunny.5 mph50%29.95 "HgN/A
12:30 PM70 °FPartly sunny.7 mph53%29.95 "HgN/A
12:00 PM70 °FPartly sunny.2 mph53%29.98 "HgN/A
11:30 AM68 °FPartly sunny.7 mph56%29.98 "HgN/A
11:00 AM68 °FSunny.8 mph56%29.98 "Hg10 mi
10:30 AM66 °FSunny.8 mph56%30.01 "Hg10 mi
10:00 AM66 °FSunny.6 mph56%30.01 "Hg10 mi
9:30 AM64 °FSunny.6 mph60%30.01 "Hg10 mi
9:00 AM64 °FSunny.8 mph60%30.01 "Hg10 mi
8:30 AM63 °FPassing clouds.6 mph64%30.01 "HgN/A
8:00 AM63 °FPassing clouds.5 mph59%30.01 "HgN/A
7:30 AM63 °FPassing clouds.3 mph59%30.01 "HgN/A
7:00 AM61 °FSunny.8 mph63%30.01 "Hg10 mi
6:30 AM61 °FSunny.7 mph68%30.01 "Hg10 mi
6:00 AM59 °FSunny.9 mph68%29.98 "Hg10 mi
5:30 AM61 °FSunny.10 mph68%29.98 "Hg10 mi
5:00 AM61 °FSunny.9 mph63%29.98 "Hg10 mi
4:30 AM61 °FClear.12 mph63%29.95 "Hg10 mi
4:00 AM61 °FClear.9 mph68%29.95 "Hg10 mi
3:30 AM63 °FClear.8 mph68%29.95 "Hg10 mi
3:00 AM57 °FClear.7 mph77%29.95 "Hg10 mi
2:30 AM59 °FClear.9 mph72%29.95 "Hg10 mi
2:00 AM57 °FClear.8 mph63%29.95 "Hg10 mi
1:30 AM63 °FClear.6 mph64%29.95 "Hg10 mi
1:00 AM63 °FPassing clouds.5 mph52%29.95 "HgN/A
12:30 AM64 °FClear.7 mph56%29.95 "Hg10 mi
12:00 AM63 °FClear.8 mph64%29.95 "Hg10 mi
11:30 PM
Thu, May 21
64 °FClear.12 mph56%29.95 "Hg10 mi
11:00 PM63 °FClear.13 mph59%29.95 "Hg10 mi
10:30 PM63 °FClear.14 mph56%29.92 "Hg10 mi
10:00 PM63 °FClear.12 mph56%29.92 "Hg10 mi
Weather by CustomWeather, © 2015

See weather overviewHow to use our weather pages